Overview Statistics Trail Chart Weather Telemetry Raw packets
 

This is the latest recevied weather packets stored in our database for station/object DO1BDB-12. If no packets are shown the sender has not sent any weather packets the latest 10 day(s).

<< 506 507 508 509 510 511 512 >>
Time Temp. Humidity Pressure Rain* Wind** Luminosity Snow
1787740063 25° C 40% 102.2 hPa - - - -
1787739997 25° C 41% 102.2 hPa - - - -
1787739931 25.56° C 40% 102.2 hPa - - - -
1787739866 24.44° C 41% 102.2 hPa - - - -
1787739800 24.44° C 40% 102.2 hPa - - - -
1787739734 24.44° C 41% 102.2 hPa - - - -
1787739668 24.44° C 41% 102.2 hPa - - - -
1787739602 24.44° C 41% 102.2 hPa - - - -
1787739536 24.44° C 41% 102.2 hPa - - - -
1787739471 23.89° C 41% 102.2 hPa - - - -
1787739405 23.89° C 41% 102.2 hPa - - - -
1787739339 24.44° C 41% 102.2 hPa - - - -
1787739273 24.44° C 41% 102.2 hPa - - - -
1787739207 25° C 40% 102.2 hPa - - - -
1787739141 24.44° C 41% 102.2 hPa - - - -
1787739075 23.33° C 42% 102.2 hPa - - - -
1787739010 24.44° C 41% 102.2 hPa - - - -
1787738944 24.44° C 41% 102.2 hPa - - - -
1787738878 25° C 41% 102.2 hPa - - - -
1787738812 23.89° C 42% 102.2 hPa - - - -
1787738746 23.89° C 40% 102.2 hPa - - - -
1787738680 23.33° C 42% 102.2 hPa - - - -
1787738615 25° C 39% 102.2 hPa - - - -
1787738549 25° C 41% 102.2 hPa - - - -
1787738483 23.33° C 42% 102.2 hPa - - - -

* Rain since midnight (hover to see other rain measurements)
** Current wind speed in m/s (hover to see current wind gust speed)